AirNav   Air Wisconsin pilot careers
 
 1131 users online  

VG07 Rular Airport
Remington, Virginia, USA

GOING TO REMINGTON?


FAA INFORMATION EFFECTIVE 26 APRIL 2018

Location

FAA Identifier: VG07
Lat/Long: 38-32-20.0000N / 077-49-42.0000W
38-32.333333N / 077-49.700000W
38.5388889 / -77.8283333
(estimated)
Elevation: 305 ft. / 93 m (estimated)
Variation: 09W (1995)
From city: 1 mile W of REMINGTON, VA
Time zone: UTC -4 (UTC -5 during Standard Time)
Zip code: 22508

Airport Operations

Airport use: Private use. Permission required prior to landing
Activation date: 09/1997
Control tower: no
ARTCC: WASHINGTON CENTER
FSS: LEESBURG FLIGHT SERVICE STATION
Attendance: UNATNDD
Wind indicator: yes
Segmented circle: no

Airport Communications

WX AWOS-3 at CJR (1.7 nm SW): 119.325 (540-727-0523)
WX AWOS-3 at HWY (6 nm NE): 120.350 (540-788-4078)
WX AWOS-3PT at HEF (18 nm NE): PHONE 703-361-6160
WX AWOS-3 at RMN (19 nm SE): 126.325 (540-657-8283)

Nearby radio navigation aids

VOR radial/distance  VOR name  Freq  Var
CSNr170/6.4CASANOVA VORTAC116.3006W
BRVr308/25.4BROOKE VORTAC114.5009W
LDNr143/25.9LINDEN VORTAC114.3006W
AMLr223/29.2ARMEL VOR/DME113.5008W
GVEr032/35.0GORDONSVILLE VORTAC115.6006W

 
NDB name  Hdg/Dist  Freq  Var  ID
NAILR045/6.235110WMSQ -- ... --.-
SHANNON323/24.123710WEZF . --.. ..-.
GOODWIN LAKE188/24.922708WGDX --. -.. -..-
CAVERNS117/31.724509WLUA .-.. ..- .-
DAVEE267/34.522309WDAA -.. .- .-
OXONN261/39.933211WDCA -.. -.-. .-

Airport Services

Runway Information

Runway 14/32

Dimensions: 1500 x 75 ft. / 457 x 23 m
Surface: turf
RUNWAY 14  RUNWAY 32
Traffic pattern: leftright

Airport Ownership and Management from official FAA records

Ownership: Privately-owned
Owner: LARRY L. SETTI
12028 FREEMAN'S FORD ROAD
REMINGTON, VA 22734
Phone 540-439-2044
Manager: LARRY L. SETTI
12028 FREEMAN'S FORD ROAD
REMINGTON, VA 22734
Phone 540-439-2044
OTHER EMAIL: FITEAFOU@GMAIL.COM

Airport Operational Statistics

Aircraft based on the field: 1
Single engine airplanes: 1
    

Instrument Procedures

There are no published instrument procedures at VG07.

Some nearby airports with instrument procedures:

KCJR - Culpeper Regional Airport (2 nm SW)
KHWY - Warrenton-Fauquier Airport (6 nm NE)
KHEF - Manassas Regional Airport/Harry P. Davis Field (18 nm NE)
KRMN - Stafford Regional Airport (19 nm SE)
KOMH - Orange County Airport (20 nm SW)
 
Loc | Ops | Rwys | IFR | FBO | Links
Com | Nav | Svcs | Stats | Notes

AirNav Hotels Sweepstakes
 
Area around VG07 (Rular Airport)
 
Road maps at: MapQuest Bing Google
 
Aerial photo
No photo
 
Sectional chart

 
Airport distance calculator
Flying to Rular Airport? Find the distance to fly.

From to VG07

Sunrise and sunset
Times for 21-May-2018
 Local
(UTC-4)
 Zulu
(UTC)
Morning civil twilight05:2609:26
Sunrise05:5609:56
Sunset20:2000:20
Evening civil twilight20:5000:50

Current date and time
Zulu (UTC)  21-May-2018 23:13:47
Local (UTC-4)  21-May-2018 19:13:47
 
METAR
KHWY 
6nm NE 
212255Z AUTO 12006KT 10SM BKN049 25/17 A3012 RMK AO2 T02490165
KCJR 
14nm W 
212255Z AUTO 00000KT 10SM BKN050 26/18 A3013 RMK AO2 T02560183
KHEF 
18nm NE 
212256Z 16007KT 10SM CLR 24/19 A3013 RMK AO2 SLP210 T02440189 PNO $
KRMN 
19nm SE 
212255Z AUTO 10005KT 10SM BKN047 25/19 A3016 RMK AO2 T02510191
TAF
KNYG 
26nm E 
2121/2221 16009KT 9999 SCT040 BKN250 QNH3010INS BECMG 2206/2208 VRB06KT 8000 -SHRA BR BKN020 OVC120 641209 642104 QNH3008INS FM221200 VRB06KT 9999 VCSH OVC010 641209 642104 QNH3000INS BECMG 2216/2218 20009KT 8000 -SHRA BR VCTS BKN040 OVC120 641209 642104 QNH2995INS TEMPO 2218/2221 4800 TSRA BKN030CB T17/2210Z T27/2221Z
KIAD 
30nm NE 
212058Z 2121/2224 14005KT P6SM SCT060 SCT200 FM220800 16004KT P6SM VCSH OVC015 FM221100 16004KT P6SM VCSH OVC010 FM221400 17004KT P6SM VCSH BKN025 BKN200 FM221800 19005KT P6SM -SHRA BKN050 BKN200
NOTAMs
Click for the latest NOTAMs
NOTAMs are issued by the DoD/FAA and will open in a separate window not controlled by AirNav.

 

 
 

Would you like to see your business listed on this page?

 If your business provides an interesting product or service to pilots, flight crews, aircraft, or users of the Rular Airport, you should consider listing it here.  To start the listing process, click on the button below
 
Add a business
 

Other Pages about Rular Airport

Update a link
 
Copyright © AirNav, LLC. All rights reserved. Privacy Policy  Contact